Location: Knowlton
(51.2333°N, 1.2667°E)
Time: 09:52:41
(UTC+00:00)

IRS-1A Rocket - Pass Details

Date: 18 April 2021
Orbit: 852 x 930 km, 99.2° (Epoch: 05 May)

Event Time Altitude Azimuth Distance (km) Brightness Sun altitude
Rises 19:43:58 0° 161° (SSE) 3,430 6.9 -7.6°
Reaches altitude 10° 19:46:18 10° 161° (SSE) 2,505 6.2 -8.0°
Maximum altitude 19:51:53 89° 76° (ENE) 886 4.3 -8.7°
Drops below altitude 10° 19:57:37 10° 344° (NNW) 2,571 7.5 -9.5°
Sets 20:00:03 0° 345° (NNW) 3,528 8.2 -9.8°
